Regional Weather Roundup
Issued by NWS Northern Indiana

Home | Current Version | Previous Version | Text Only | Print | Product List | Glossary Off
Versions: 1 2 3 4 5 6 7 8 9 10 11 12 13 14 15 16 17 18 19 20 21 22 23 24 25 26 27 28 29 30 31 32 33 34 35 36 37 38 39 40 41 42 43 44 45 46 47 48 49 50

000
ASUS43 KIWX 252110
RWRIWX

KIWX WEATHER ROUNDUP
NATIONAL WEATHER SERVICE NORTHERN INDIANA
500 PM EDT MON MAY 25 2015

NOTE: "FAIR" INDICATES FEW OR NO CLOUDS BELOW 12,000 FEET WITH NO
SIGNIFICANT WEATHER AND/OR OBSTRUCTIONS TO VISIBILITY.

* THESE STATIONS ARE NOT UNDER NWS QUALITY CONTROL. THEY ALSO MAY NOT
  REPORT WEATHER SUCH AS PRECIPITATION OR FOG.

INZ001>027-252200-
NORTHERN INDIANA

CITY           SKY/WX    TMP DP  RH WIND       PRES   REMARKS
GARY*          PTSUNNY   81  59  47 SW17G32   29.94S
VALPARAISO     PTSUNNY   80  59  48 SW16      29.95R
MICHIGAN CITY* PTSUNNY   79  55  44 SW14G23   29.94S
LAPORTE*       PTSUNNY   81  60  49 W17G28    29.95R
KNOX*          PTSUNNY   81  55  41 SW18G26   29.95R
SOUTH BEND     MOSUNNY   81  58  45 SW22G30   29.94R
ELKHART*       MOSUNNY   81  59  47 SW21G28   29.95R
GOSHEN         MOSUNNY   81  61  50 SW22G31   29.95R
MONTICELLO*    PTSUNNY   80  61  51 SW20G25   29.97S
LOGANSPORT*    PTSUNNY   79  57  47 SW24G30   29.99S
ROCHESTER*     MOSUNNY   81  57  44 SW20G26   29.98R
WARSAW*        MOSUNNY   79  63  57 SW8G18    29.96S
ANGOLA*        CLOUDY    79  73  83 SW24      29.95S
FORT WAYNE     PTSUNNY   78  62  57 SW23G29   30.00S
HUNTINGTON*    CLOUDY    78  62  57 SW14G22   29.99F
PERU/GRISSOM   SUNNY     80  66  62 SW20      29.98F
MARION*        PTSUNNY   79  60  51 SW21G30   30.02S

$$
INZ028>050-252200-
CENTRAL INDIANA

CITY           SKY/WX    TMP DP  RH WIND       PRES   REMARKS
LAFAYETTE      CLOUDY    79  62  56 SW16G26   29.98S
KOKOMO*        CLOUDY    79  61  53 SW22G30   30.00F
MUNCIE*        PTSUNNY   80  62  54 SW17G28   30.04S
INDIANAPOLIS   CLOUDY    79  63  57 SW17      30.03F

$$
MIZ043>046-050>051-056>058-064>065-071>073-077>080-252200-
SOUTHWEST LOWER MICHIGAN

CITY           SKY/WX    TMP DP  RH WIND       PRES   REMARKS
BATTLE CREEK   MOSUNNY   79  63  57 W15G32    29.92S
BENTON HARBOR  MOSUNNY   73  62  68 SW18G28   29.93R
COLDWATER*     MOSUNNY   79  61  53 SW18G26   29.93F
HILLSDALE*     PTSUNNY   81  61  49 SW15G24   29.95S
HOLLAND        MOSUNNY   74  62  66 SW24G32   29.91R
GRAND RAPIDS   PTSUNNY   77  62  59 SW23G31   29.89S
KALAMAZOO      MOSUNNY   77  64  64 W14G23    29.93R
STURGIS*       PTSUNNY   81  59  47 SW23G30   29.93S
THREE RIVERS*  FAIR      78  60  52 SW16G29   29.93R

$$
OHZ001>008-015>018-024>025-252200-
NORTHWEST OHIO

CITY           SKY/WX    TMP DP  RH WIND       PRES   REMARKS
WAUSEON*       PTSUNNY   82  61  47 SW29G39   29.96F
DEFIANCE       PTSUNNY   80  60  50 SW17G29   29.98F
FINDLAY        PTSUNNY   80  62  54 SW24G36   30.02F
TOLEDO EXPRESS PTSUNNY   79  62  56 SW21G33   29.98F
TOLEDO METCALF MOSUNNY   82  61  48 SW22G37   29.99F
LIMA           PTSUNNY   78  62  57 SW20G28   30.04F

$$
AND FOR LAKE MICHIGAN COASTAL AND OPEN LAKE BUOY OBSERVATIONS

STATION/POSITION TEMP    WIND        PRES    VSBY  WAVE
                 AIR SEA DIR/SP/G                  HT/PER
                 (F)     (DEG/KT/KT) (MB)    (MI)  (FT/S)
CALUMET HARBOR    76     210/ 13/ 19   N/A
MICHIGAN CITY     67     210/ 16/ 19   N/A
BURNS HARBOR      76     230/ 16/ 24 1013.9S
SAINT JOSEPH      65     180/ 13/ 18 1014.2R
SOUTH LAKE BUOY   47 38  200/ 12/ 14 1012.4R         2/ 4
4 MI NW BRIDGMAN  61 55  270/ 12/ 14   N/A           3/ 4
MICHIGAN CITY     62 52  260/ 10/ 14   N/A           2/ 4
SAINT JOSEPH CG                      1012.1      6   2

$$
&&



USA.gov is the U.S. government's official web portal to all federal, state and local government web resources and services.